This is the latest recevied weather packets stored in our database for station/object WX5RP. If no packets are shown the sender has not sent any weather packets the latest 10 day(s).
| Time | Temp. | Humidity | Pressure | Rain* | Wind** | Luminosity | Snow |
|---|---|---|---|---|---|---|---|
| 1777968915 | 6.67° C | 79% | 1012.8 hPa | 0 mm | - | 0 W/m² | - |
| 1777968316 | 6.67° C | 79% | 1012.8 hPa | 0 mm | - | 0 W/m² | - |
| 1777967716 | 6.67° C | 77% | 1012.8 hPa | 0 mm | - | 0 W/m² | - |
| 1777967116 | 6.67° C | 77% | 1012.8 hPa | 0 mm | - | 0 W/m² | - |
| 1777966516 | 6.67° C | 76% | 1012.6 hPa | 0 mm | - | 0 W/m² | - |
| 1777965915 | 6.67° C | 72% | 1012.5 hPa | 0 mm | - | 0 W/m² | - |
| 1777965315 | 8.33° C | 66% | 1012.8 hPa | 0 mm | - | 0 W/m² | - |
| 1777964717 | 10.56° C | 58% | 1012.5 hPa | 0 mm | - | 0 W/m² | - |
| 1777964117 | 9.44° C | 56% | 1012.5 hPa | 0 mm | - | 0 W/m² | - |
| 1777963517 | 9.44° C | 61% | 1012.3 hPa | 0 mm | - | 0 W/m² | - |
| 1777962917 | 9.44° C | 58% | 1012 hPa | 0 mm | - | 0 W/m² | - |
| 1777962317 | 10.56° C | 55% | 1011.8 hPa | 0 mm | - | 0 W/m² | - |
| 1777961717 | 13.33° C | 40% | 1012.5 hPa | 0 mm | - | 0 W/m² | - |
| 1777961117 | 13.89° C | 36% | 1011.9 hPa | 0 mm | - | 0 W/m² | - |
| 1777960517 | 13.33° C | 38% | 1011.3 hPa | 0 mm | - | 0 W/m² | - |
| 1777959917 | 13.89° C | 41% | 1011.7 hPa | 0 mm | - | 0 W/m² | - |
| 1777959320 | 14.44° C | 36% | 1011.1 hPa | 0 mm | - | 0 W/m² | - |
| 1777958716 | 15.56° C | 33% | 1010.9 hPa | 0 mm | - | 0 W/m² | - |
| 1777958117 | 15.56° C | 33% | 1010.9 hPa | 0 mm | - | 0 W/m² | - |
| 1777957517 | 15.56° C | 35% | 1011.3 hPa | 0 mm | - | 0 W/m² | - |
| 1777956917 | 15.56° C | 38% | 1011.4 hPa | 0 mm | - | 0 W/m² | - |
| 1777956316 | 15° C | 42% | 1011.2 hPa | 0 mm | - | 0 W/m² | - |
| 1777955716 | 14.44° C | 45% | 1010.5 hPa | 0 mm | - | 0 W/m² | - |
| 1777955116 | 15.56° C | 43% | 1010.4 hPa | 0 mm | - | 0 W/m² | - |
| 1777954516 | 15.56° C | 42% | 1010.1 hPa | 0 mm | - | 0 W/m² | - |
* Rain latest hour (hover to see other rain measurements)
** Current wind speed in m/s (hover to see current wind gust speed)